Folgueroles





Hora UTC 05:50
Temperatura 12.9 ºC
Humedad 97.0 %
Presión 1017.6 hPa
Pluja 0.0 mm
Velocidad viento 0.0 km/h
Dirección viento WSW

Datos diarios 2020-05-30



Hora UTC (invierno +1h; verano +2h)
Temperatura (ºC) Humedad (%) Presión (hPa) Velocidad viento (km/h) Precipitación (mm)
Hora UTC Aire Humedad Presión Vel. Dir. Vel. Max Dir. Intent. máx 5 min.
00:05 12.7 96.0 1017.5 0.0 WSW 0.0 0.0
00:10 12.8 96.0 1017.5 0.0 WSW 1.6 0.0
00:15 12.8 96.0 1017.6 0.0 WSW 0.0 0.0
00:20 12.9 96.0 1017.6 0.0 WSW 1.6 0.0
00:25 12.9 96.0 1017.6 0.0 WSW 1.6 0.0
00:30 13.0 96.0 1017.7 0.0 WSW 0.0 0.0
00:35 13.0 96.0 1017.7 0.0 WSW 0.0 0.0
00:40 13.0 96.0 1017.6 0.0 WSW 0.0 0.0
00:45 12.9 96.0 1017.6 0.0 WSW 0.0 0.0
00:50 12.9 96.0 1017.5 0.0 WSW 0.0 0.0
00:55 13.0 96.0 1017.6 0.0 WSW 0.0 0.0
01:00 13.1 97.0 1017.5 0.0 WSW 3.2 0.0
01:05 13.1 97.0 1017.5 0.0 WSW 3.2 0.0
01:10 13.1 96.0 1017.6 1.6 WSW 3.2 0.0
01:15 12.9 96.0 1017.5 0.0 WSW 3.2 0.0
01:20 12.9 96.0 1017.6 0.0 WSW 0.0 0.0
01:25 12.8 96.0 1017.6 0.0 WSW 0.0 0.0
01:30 12.8 96.0 1017.7 0.0 WSW 0.0 0.0
01:35 12.9 96.0 1017.8 0.0 WSW 0.0 0.0
01:40 13.0 97.0 1017.6 0.0 WSW 0.0 0.0
01:45 13.1 97.0 1017.6 0.0 WSW 0.0 0.0
01:50 13.1 97.0 1017.6 0.0 WSW 0.0 0.0
01:55 13.0 96.0 1017.6 0.0 WSW 0.0 0.0
02:00 12.8 96.0 1017.8 0.0 WSW 0.0 0.0
02:05 12.7 96.0 1017.7 0.0 WSW 0.0 0.0
02:10 12.6 96.0 1017.7 0.0 WSW 0.0 0.0
02:15 12.6 96.0 1017.6 0.0 WSW 0.0 0.0
02:20 12.5 96.0 1017.7 0.0 WSW 0.0 0.0
02:25 12.4 96.0 1017.6 0.0 WSW 0.0 0.0
02:30 12.4 96.0 1017.7 0.0 WSW 0.0 0.0
02:35 12.4 97.0 1017.6 0.0 WSW 0.0 0.0
02:40 12.5 97.0 1017.6 0.0 WSW 0.0 0.0
02:45 12.4 97.0 1017.7 0.0 WSW 0.0 0.0
02:50 12.4 97.0 1017.7 0.0 WSW 4.8 0.0
02:55 12.3 96.0 1017.6 0.0 WSW 4.8 0.0
03:00 12.3 96.0 1017.6 0.0 WSW 0.0 0.0
03:05 12.2 96.0 1017.6 0.0 WSW 0.0 0.0
03:10 12.2 96.0 1017.5 0.0 WSW 0.0 0.0
03:15 12.3 97.0 1017.5 0.0 WSW 0.0 0.0
03:20 12.3 97.0 1017.5 0.0 WSW 0.0 0.0
03:25 12.3 97.0 1017.5 0.0 WSW 0.0 0.0
03:30 12.4 97.0 1017.5 0.0 WSW 0.0 0.0
03:35 12.5 97.0 1017.5 0.0 WSW 0.0 0.0
03:40 12.6 97.0 1017.5 0.0 WSW 0.0 0.0
03:45 12.7 97.0 1017.6 0.0 WSW 3.2 0.0
03:50 12.8 97.0 1017.5 0.0 WSW 4.8 0.0
03:55 12.8 97.0 1017.6 0.0 WSW 4.8 0.0
04:00 12.8 97.0 1017.5 0.0 WSW 0.0 0.0
04:05 12.8 97.0 1017.5 0.0 WSW 3.2 0.0
04:10 12.8 97.0 1017.5 0.0 WSW 3.2 0.0
04:15 12.8 97.0 1017.5 0.0 WSW 0.0 0.0
04:20 12.8 97.0 1017.5 0.0 WSW 3.2 0.0
04:25 12.8 97.0 1017.5 0.0 WSW 3.2 0.0
04:30 12.8 97.0 1017.4 0.0 WSW 0.0 0.0
04:35 12.8 97.0 1017.5 0.0 WSW 0.0 0.0
04:40 12.7 97.0 1017.5 0.0 WSW 0.0 0.0
04:45 12.7 97.0 1017.5 0.0 WSW 0.0 0.0
04:50 12.6 97.0 1017.5 0.0 WSW 0.0 0.0
04:55 12.6 97.0 1017.5 0.0 WSW 1.6 0.0
05:00 12.6 97.0 1017.5 1.6 WSW 1.6 0.0
05:05 12.6 97.0 1017.6 0.0 WSW 1.6 0.0
05:10 12.6 97.0 1017.6 0.0 WSW 1.6 0.0
05:15 12.6 97.0 1017.6 0.0 WSW 1.6 0.0
05:20 12.6 97.0 1017.6 0.0 WSW 1.6 0.0
05:25 12.6 97.0 1017.6 0.0 WSW 0.0 0.0
05:30 12.7 97.0 1017.6 1.6 WSW 3.2 0.0
05:35 12.8 97.0 1017.6 0.0 WSW 3.2 0.0
05:40 12.8 97.0 1017.7 0.0 WSW 1.6 0.0
05:45 12.8 97.0 1017.6 0.0 WSW 3.2 0.0
05:50 12.9 97.0 1017.6 0.0 WSW 3.2 0.0
Máxima 13.1 97.0 1017.8 1.6 WSW 4.8 0.0
Mínima 12.2 96.0 1017.4
Total 0.0